^^
Saratoga-Weather Station Historical Data
Daily Summary for April 5, 2021 Units:  Metric    English   Both
Daily Weekly Monthly Yearly Custom
  High: Low: Average:
Temperature: 22.8 °C 14.9 °C 17.3 °C
Dew Point: 18.1 °C 13.8 °C 15.4 °C
Humidity: 96% 72% 89%
Wind Speed: 14.3km/h 0km/h 1km/h
Wind Gust: 19.3km/h - -
Wind- - South
Pressure: 1011.5 hPa 1005.8 hPa -
Precipitation: 7.1 mm    
Historical Graphs
 
 
Tabular Data for April 5, 2021
Time Temperature Dew Point Pressure Wind Wind Speed Wind Gust Humidity Rainfall Rate (Hourly) solar
00:03 15.6 °C 14 °C 1011.2 hPa Calm     90% 0.0 mm 0 W/m2
00:09 15.6 °C 14 °C 1011.2 hPa Calm     90% 0.0 mm 0 W/m2
00:14 15.6 °C 14 °C 1011.2 hPa Calm     90% 0.0 mm 0 W/m2
00:19 15.6 °C 14 °C 1011.2 hPa Calm     90% 0.0 mm 0 W/m2
00:24 15.5 °C 13.9 °C 1011.2 hPa Calm     90% 0.0 mm 0 W/m2
00:29 15.4 °C 13.8 °C 1011.5 hPa Calm     90% 0.0 mm 0 W/m2
00:34 15.4 °C 13.8 °C 1011.2 hPa Calm     90% 0.0 mm 0 W/m2
00:39 15.4 °C 13.8 °C 1011.5 hPa Calm     90% 0.0 mm 0 W/m2
00:44 15.4 °C 13.9 °C 1011.5 hPa Calm     91% 0.0 mm 0 W/m2
00:49 15.4 °C 13.9 °C 1011.5 hPa Calm   1.6 km/h 91% 0.0 mm 0 W/m2
00:54 15.4 °C 13.9 °C 1011.5 hPa Calm     91% 0.0 mm 0 W/m2
00:59 15.5 °C 14 °C 1011.2 hPa Calm     91% 0.0 mm 0 W/m2
01:04 15.7 °C 14.2 °C 1011.2 hPa Calm     91% 0.0 mm 0 W/m2
01:09 15.8 °C 14.2 °C 1011.2 hPa Calm   1.6 km/h 90% 0.0 mm 0 W/m2
01:14 16 °C 14.2 °C 1011.2 hPa Calm   1.6 km/h 89% 0.0 mm 0 W/m2
01:19 16.2 °C 14.2 °C 1011.2 hPa Calm   1.6 km/h 88% 0.0 mm 0 W/m2
01:24 16.3 °C 14.3 °C 1011.2 hPa West 3.2 km/h 3.2 km/h 88% 0.0 mm 0 W/m2
01:29 16.5 °C 14.3 °C 1011.2 hPa WSW 1.4 km/h 4.8 km/h 87% 0.0 mm 0 W/m2
01:34 16.6 °C 14.2 °C 1011.2 hPa Calm   4.8 km/h 86% 0.0 mm 0 W/m2
01:39 16.7 °C 14.3 °C 1011.2 hPa Calm     86% 0.0 mm 0 W/m2
01:44 16.7 °C 14.3 °C 1011.2 hPa Calm   4.8 km/h 86% 0.0 mm 0 W/m2
01:49 16.6 °C 14.2 °C 1011.2 hPa Calm     86% 0.0 mm 0 W/m2
01:54 16.6 °C 14.4 °C 1010.8 hPa Calm     87% 0.0 mm 0 W/m2
02:11 16.3 °C 14.3 °C 1010.8 hPa Calm     88% 0.0 mm 0 W/m2
02:16 16.3 °C 14.3 °C 1010.8 hPa Calm     88% 0.0 mm 0 W/m2
02:21 16.2 °C 14.4 °C 1010.8 hPa Calm     89% 0.0 mm 0 W/m2
02:26 16.1 °C 14.3 °C 1010.8 hPa Calm     89% 0.0 mm 0 W/m2
02:31 16.1 °C 14.3 °C 1010.8 hPa Calm     89% 0.0 mm 0 W/m2
02:36 15.9 °C 14.3 °C 1010.8 hPa Calm     90% 0.0 mm 0 W/m2
02:41 15.9 °C 14.3 °C 1010.8 hPa Calm     90% 0.0 mm 0 W/m2
02:46 15.8 °C 14.2 °C 1010.8 hPa Calm     90% 0.0 mm 0 W/m2
02:51 15.7 °C 14.1 °C 1010.5 hPa Calm     90% 0.0 mm 0 W/m2
02:56 15.7 °C 14.1 °C 1010.8 hPa Calm     90% 0.0 mm 0 W/m2
03:01 15.7 °C 14.2 °C 1010.5 hPa Calm     91% 0.0 mm 0 W/m2
03:06 15.6 °C 14.1 °C 1010.8 hPa Calm     91% 0.0 mm 0 W/m2
03:11 15.6 °C 14.1 °C 1010.5 hPa Calm     91% 0.0 mm 0 W/m2
03:16 15.6 °C 14.1 °C 1010.5 hPa Calm     91% 0.0 mm 0 W/m2
03:21 15.6 °C 14.1 °C 1010.5 hPa Calm   1.6 km/h 91% 0.0 mm 0 W/m2
03:42 15.7 °C 14.4 °C 1010.2 hPa Calm     92% 0.0 mm 0 W/m2
03:47 15.7 °C 14.4 °C 1010.2 hPa Calm   1.6 km/h 92% 0.0 mm 0 W/m2
03:52 15.7 °C 14.4 °C 1010.2 hPa Calm     92% 0.0 mm 0 W/m2
03:57 15.7 °C 14.2 °C 1010.2 hPa Calm     91% 0.0 mm 0 W/m2
04:02 15.7 °C 14.2 °C 1010.2 hPa Calm     91% 0.0 mm 0 W/m2
04:07 15.7 °C 14.2 °C 1010.2 hPa Calm     91% 0.0 mm 0 W/m2
04:12 15.6 °C 14.3 °C 1010.2 hPa Calm   1.6 km/h 92% 0.0 mm 0 W/m2
04:17 15.5 °C 14.2 °C 1010.2 hPa Calm   1.6 km/h 92% 0.0 mm 0 W/m2
04:22 15.4 °C 14.1 °C 1010.2 hPa West 1.4 km/h 1.6 km/h 92% 0.0 mm 0 W/m2
04:27 15.4 °C 14.1 °C 1010.2 hPa Calm     92% 0.0 mm 0 W/m2
04:32 15.4 °C 14.1 °C 1010.2 hPa Calm     92% 0.0 mm 0 W/m2
04:37 15.3 °C 14 °C 1010.2 hPa Calm     92% 0.0 mm 0 W/m2
04:42 15.3 °C 14 °C 1010.2 hPa Calm     92% 0.0 mm 0 W/m2
04:47 15.3 °C 14 °C 1010.2 hPa Calm     92% 0.0 mm 0 W/m2
04:52 15.2 °C 14.1 °C 1010.2 hPa Calm     93% 0.0 mm 0 W/m2
04:57 15.2 °C 14.1 °C 1010.2 hPa Calm     93% 0.0 mm 0 W/m2
05:02 15.2 °C 14.1 °C 1010.2 hPa Calm     93% 0.0 mm 0 W/m2
05:07 15.2 °C 14.1 °C 1010.2 hPa Calm     93% 0.0 mm 0 W/m2
05:12 15.2 °C 14.1 °C 1010.2 hPa Calm     93% 0.0 mm 0 W/m2
05:17 15.1 °C 14 °C 1009.8 hPa Calm     93% 0.0 mm 0 W/m2
05:22 15.1 °C 14 °C 1009.8 hPa Calm   1.6 km/h 93% 0.0 mm 0 W/m2
05:27 15.1 °C 14 °C 1009.8 hPa Calm     93% 0.0 mm 0 W/m2
05:32 15.1 °C 14 °C 1009.8 hPa Calm   1.6 km/h 93% 0.0 mm 0 W/m2
05:37 15.1 °C 14 °C 1009.8 hPa Calm   1.6 km/h 93% 0.0 mm 0 W/m2
05:43 15.1 °C 14 °C 1009.8 hPa Calm   1.6 km/h 93% 0.0 mm 0 W/m2
05:48 15.1 °C 14.1 °C 1009.8 hPa Calm     94% 0.0 mm 0 W/m2
05:53 15.1 °C 14.1 °C 1009.8 hPa Calm     94% 0.0 mm 0 W/m2
05:58 15.1 °C 14.1 °C 1009.8 hPa Calm     94% 0.0 mm 0 W/m2
06:03 15 °C 14 °C 1009.8 hPa Calm     94% 0.0 mm 0 W/m2
06:08 15 °C 14 °C 1009.8 hPa Calm     94% 0.0 mm 0 W/m2
06:13 14.9 °C 13.9 °C 1009.8 hPa Calm     94% 0.0 mm 0 W/m2
06:18 14.9 °C 13.9 °C 1009.8 hPa Calm     94% 0.0 mm 0 W/m2
06:23 14.9 °C 13.9 °C 1009.8 hPa Calm     94% 0.0 mm 5 W/m2
06:28 14.9 °C 13.9 °C 1009.8 hPa Calm     94% 0.0 mm 9 W/m2
06:33 14.9 °C 13.9 °C 1009.8 hPa Calm     94% 0.0 mm 16 W/m2
06:38 14.9 °C 14.1 °C 1009.8 hPa Calm     95% 0.0 mm 18 W/m2
06:43 14.9 °C 14.1 °C 1009.8 hPa Calm     95% 0.0 mm 14 W/m2
06:48 15 °C 14.2 °C 1009.8 hPa Calm     95% 0.0 mm 12 W/m2
06:53 15 °C 14.2 °C 1009.8 hPa Calm     95% 0.0 mm 9 W/m2
06:58 15 °C 14.2 °C 1009.8 hPa West 1.4 km/h 1.6 km/h 95% 0.0 mm 5 W/m2
07:03 15 °C 14.2 °C 1009.5 hPa Calm     95% 0.5 mm 5 W/m2
07:08 15 °C 14.2 °C 1009.5 hPa Calm     95% 0.5 mm 0 W/m2
07:13 15 °C 14.2 °C 1009.5 hPa Calm     95% 0.8 mm 5 W/m2
07:18 15 °C 14.2 °C 1009.5 hPa Calm     95% 0.8 mm 7 W/m2
07:23 15.1 °C 14.3 °C 1009.5 hPa Calm     95% 0.8 mm 9 W/m2
07:28 15.1 °C 14.3 °C 1009.5 hPa Calm     95% 0.8 mm 11 W/m2
07:33 15.1 °C 14.3 °C 1009.5 hPa Calm     95% 0.8 mm 12 W/m2
07:38 15.1 °C 14.3 °C 1009.5 hPa Calm   1.6 km/h 95% 0.8 mm 16 W/m2
07:43 15.1 °C 14.3 °C 1009.5 hPa NNW 1.4 km/h 1.6 km/h 95% 0.8 mm 18 W/m2
08:00 15.2 °C 14.4 °C 1009.5 hPa Calm     95% 0.5 mm 39 W/m2
08:05 15.2 °C 14.4 °C 1009.1 hPa East 1.4 km/h 3.2 km/h 95% 0.2 mm 53 W/m2
08:10 15.3 °C 14.5 °C 1009.1 hPa Calm   1.6 km/h 95% 0.0 mm 70 W/m2
08:15 15.3 °C 14.5 °C 1009.5 hPa Calm   3.2 km/h 95% 0.0 mm 83 W/m2
08:20 15.3 °C 14.5 °C 1009.5 hPa Calm   3.2 km/h 95% 0.0 mm 90 W/m2
08:25 15.4 °C 14.8 °C 1009.5 hPa East 3.2 km/h 3.2 km/h 96% 0.0 mm 90 W/m2
08:30 15.4 °C 14.8 °C 1009.5 hPa Calm   3.2 km/h 96% 0.0 mm 84 W/m2
08:35 15.4 °C 14.8 °C 1009.5 hPa ENE 3.2 km/h 3.2 km/h 96% 0.0 mm 91 W/m2
08:55 15.6 °C 14.8 °C 1009.5 hPa ENE 1.4 km/h 1.6 km/h 95% 0.2 mm 84 W/m2
09:00 15.7 °C 14.9 °C 1009.5 hPa ENE 1.4 km/h 3.2 km/h 95% 0.5 mm 90 W/m2
09:05 15.7 °C 14.9 °C 1009.5 hPa Calm   1.6 km/h 95% 0.8 mm 91 W/m2
09:10 15.7 °C 14.9 °C 1009.5 hPa Calm   3.2 km/h 95% 0.8 mm 90 W/m2
09:15 15.8 °C 15 °C 1009.5 hPa ENE 1.4 km/h 1.6 km/h 95% 0.8 mm 79 W/m2
09:20 15.8 °C 15 °C 1009.5 hPa Calm   3.2 km/h 95% 1.5 mm 56 W/m2
09:25 15.8 °C 15 °C 1009.5 hPa Calm   1.6 km/h 95% 2.3 mm 62 W/m2
09:30 15.8 °C 15 °C 1009.5 hPa Calm     95% 2.5 mm 81 W/m2
09:35 15.8 °C 15 °C 1009.5 hPa Calm     95% 2.5 mm 67 W/m2
09:54 15.9 °C 15.1 °C 1009.5 hPa Calm     95% 2.5 mm 121 W/m2
09:59 16 °C 15.2 °C 1009.5 hPa ENE 1.4 km/h 3.2 km/h 95% 2.3 mm 139 W/m2
10:04 16.1 °C 15.3 °C 1009.5 hPa Calm     95% 2.3 mm 139 W/m2
10:10 16.2 °C 15.6 °C 1009.1 hPa ENE 1.4 km/h 3.2 km/h 96% 2.3 mm 160 W/m2
10:15 16.2 °C 15.6 °C 1009.1 hPa ENE 1.4 km/h 3.2 km/h 96% 2.5 mm 172 W/m2
10:20 16.3 °C 15.5 °C 1009.1 hPa East 1.4 km/h 1.6 km/h 95% 1.8 mm 144 W/m2
10:25 16.3 °C 15.5 °C 1009.1 hPa NE 1.4 km/h 4.8 km/h 95% 1.0 mm 167 W/m2
10:45 16.6 °C 15.8 °C 1009.1 hPa ENE 3.2 km/h 3.2 km/h 95% 0.5 mm 192 W/m2
10:50 16.7 °C 15.9 °C 1009.1 hPa ENE 1.4 km/h 3.2 km/h 95% 0.5 mm 260 W/m2
10:55 16.9 °C 15.9 °C 1009.1 hPa East 3.2 km/h 4.8 km/h 94% 0.5 mm 271 W/m2
11:00 17.1 °C 16.1 °C 1009.1 hPa ENE 3.2 km/h 3.2 km/h 94% 0.5 mm 320 W/m2
11:05 17.4 °C 16.4 °C 1009.1 hPa ENE 1.4 km/h 3.2 km/h 94% 0.5 mm 362 W/m2
11:10 17.7 °C 16.4 °C 1009.1 hPa East 1.4 km/h 3.2 km/h 92% 0.2 mm 237 W/m2
11:15 17.9 °C 16.4 °C 1008.8 hPa ENE 1.4 km/h 4.8 km/h 91% 0.0 mm 309 W/m2
11:20 18.2 °C 16.7 °C 1008.8 hPa NW 3.2 km/h 3.2 km/h 91% 0.0 mm 390 W/m2
11:25 18.6 °C 16.8 °C 1008.8 hPa Calm   4.8 km/h 89% 0.0 mm 359 W/m2
11:30 18.9 °C 17.2 °C 1008.8 hPa ENE 3.2 km/h 6.4 km/h 90% 0.0 mm 617 W/m2
11:35 19.2 °C 16.8 °C 1008.8 hPa East 1.4 km/h 3.2 km/h 86% 0.0 mm 260 W/m2
11:40 19.3 °C 16.9 °C 1008.8 hPa Calm   1.6 km/h 86% 0.0 mm 211 W/m2
11:45 19.2 °C 16.4 °C 1008.8 hPa Calm   1.6 km/h 84% 0.0 mm 178 W/m2
11:50 19.1 °C 16.3 °C 1008.8 hPa Calm   1.6 km/h 84% 0.0 mm 232 W/m2
12:07 19.6 °C 16.8 °C 1008.8 hPa East 4.7 km/h 4.8 km/h 84% 0.0 mm 587 W/m2
12:12 19.8 °C 16.8 °C 1008.8 hPa SSW 1.4 km/h 4.8 km/h 83% 0.0 mm 325 W/m2
12:17 19.9 °C 16.5 °C 1008.8 hPa East 1.4 km/h 12.9 km/h 81% 0.0 mm 392 W/m2
12:22 19.8 °C 16.6 °C 1008.5 hPa Calm   3.2 km/h 82% 0.0 mm 404 W/m2
12:27 19.9 °C 17.1 °C 1008.5 hPa NNE 1.4 km/h 12.9 km/h 84% 0.0 mm 320 W/m2
12:32 20.1 °C 17.1 °C 1008.5 hPa ENE 1.4 km/h 8 km/h 83% 0.0 mm 410 W/m2
12:37 20.1 °C 16.9 °C 1008.5 hPa East 4.7 km/h 6.4 km/h 82% 0.0 mm 629 W/m2
12:42 20.2 °C 17.2 °C 1008.5 hPa SW 1.4 km/h 8 km/h 83% 0.0 mm 214 W/m2
12:47 19.9 °C 16.3 °C 1008.5 hPa Calm   1.6 km/h 80% 0.0 mm 174 W/m2
12:52 19.8 °C 16.2 °C 1008.5 hPa SE 1.4 km/h 1.6 km/h 80% 0.0 mm 207 W/m2
12:57 19.8 °C 16.6 °C 1008.5 hPa Calm   1.6 km/h 82% 0.0 mm 287 W/m2
13:02 19.8 °C 16.8 °C 1008.5 hPa WNW 4.7 km/h 6.4 km/h 83% 0.0 mm 446 W/m2
13:07 19.8 °C 16.2 °C 1008.5 hPa NW 1.4 km/h 3.2 km/h 80% 0.0 mm 302 W/m2
13:12 19.9 °C 16.1 °C 1008.1 hPa Calm   6.4 km/h 79% 0.0 mm 369 W/m2
13:17 20.1 °C 16.3 °C 1008.1 hPa NE 3.2 km/h 3.2 km/h 79% 0.0 mm 207 W/m2
13:37 19.9 °C 16.5 °C 1008.1 hPa WSW 6.4 km/h 6.4 km/h 81% 0.0 mm 288 W/m2
13:42 20.1 °C 17.1 °C 1008.1 hPa NW 1.4 km/h 3.2 km/h 83% 0.0 mm 267 W/m2
13:47 20 °C 16.2 °C 1008.1 hPa Calm   3.2 km/h 79% 0.0 mm 302 W/m2
13:52 20.1 °C 16.3 °C 1008.1 hPa South 1.4 km/h 4.8 km/h 79% 0.0 mm 308 W/m2
13:57 20.2 °C 16.4 °C 1007.8 hPa Calm   6.4 km/h 79% 0.0 mm 352 W/m2
14:02 20.3 °C 16.3 °C 1007.8 hPa NW 1.4 km/h 3.2 km/h 78% 0.0 mm 795 W/m2
14:22 21.3 °C 16.9 °C 1007.8 hPa NW 3.2 km/h 4.8 km/h 76% 0.0 mm 524 W/m2
14:27 21.2 °C 17 °C 1007.8 hPa NW 1.4 km/h 6.4 km/h 77% 0.0 mm 900 W/m2
14:33 21.3 °C 16.9 °C 1007.5 hPa WNW 4.7 km/h 6.4 km/h 76% 0.0 mm 422 W/m2
14:49 21.6 °C 17.2 °C 1007.5 hPa East 4.7 km/h 8 km/h 76% 0.0 mm 773 W/m2
14:54 21.7 °C 17.1 °C 1007.5 hPa WNW 9.7 km/h 9.7 km/h 75% 0.0 mm 1030 W/m2
14:59 21.8 °C 17 °C 1007.5 hPa WNW 1.4 km/h 9.7 km/h 74% 0.0 mm 1041 W/m2
15:04 21.8 °C 16.5 °C 1007.5 hPa Calm   8 km/h 72% 0.0 mm 749 W/m2
15:09 21.7 °C 17.1 °C 1007.5 hPa SW 3.2 km/h 8 km/h 75% 0.0 mm 626 W/m2
15:14 21.4 °C 16.6 °C 1007.1 hPa West 4.7 km/h 12.9 km/h 74% 0.0 mm 533 W/m2
15:19 21.3 °C 16.9 °C 1007.1 hPa East 1.4 km/h 6.4 km/h 76% 0.0 mm 696 W/m2
15:24 21.7 °C 17.5 °C 1007.1 hPa SE 1.4 km/h 4.8 km/h 77% 0.0 mm 1144 W/m2
15:29 21.9 °C 17.5 °C 1007.1 hPa Calm   11.3 km/h 76% 0.0 mm 712 W/m2
15:34 21.9 °C 17.1 °C 1007.1 hPa West 11.1 km/h 11.3 km/h 74% 0.0 mm 383 W/m2
15:39 21.7 °C 16.9 °C 1007.1 hPa Calm   11.3 km/h 74% 0.0 mm 439 W/m2
15:44 21.8 °C 17.4 °C 1006.8 hPa NW 1.4 km/h 4.8 km/h 76% 0.0 mm 439 W/m2
15:49 21.9 °C 16.8 °C 1007.1 hPa West 14.3 km/h 19.3 km/h 73% 0.0 mm 388 W/m2
15:54 21.9 °C 16.8 °C 1007.1 hPa SSE 3.2 km/h 4.8 km/h 73% 0.0 mm 388 W/m2
15:59 22.1 °C 17.2 °C 1006.8 hPa WSW 3.2 km/h 19.3 km/h 74% 0.0 mm 431 W/m2
16:20 21.6 °C 17.2 °C 1006.8 hPa NNW 1.4 km/h 6.4 km/h 76% 0.0 mm 239 W/m2
16:25 21.3 °C 16.9 °C 1006.8 hPa East 1.4 km/h 9.7 km/h 76% 0.0 mm 239 W/m2
16:30 21.3 °C 16.9 °C 1006.8 hPa East 1.4 km/h 3.2 km/h 76% 0.0 mm 292 W/m2
16:35 21.3 °C 16.9 °C 1006.8 hPa Calm   8 km/h 76% 0.0 mm 274 W/m2
16:40 21.5 °C 17.1 °C 1006.8 hPa SW 3.2 km/h 3.2 km/h 76% 0.0 mm 283 W/m2
16:57 22.6 °C 17.7 °C 1006.4 hPa West 4.7 km/h 11.3 km/h 74% 0.0 mm 842 W/m2
17:02 22.8 °C 18.1 °C 1006.1 hPa East 9.7 km/h 11.3 km/h 75% 0.0 mm 853 W/m2
17:07 22.8 °C 18.1 °C 1006.1 hPa ENE 1.4 km/h 3.2 km/h 75% 0.0 mm 250 W/m2
17:12 22.6 °C 17.9 °C 1006.1 hPa WSW 3.2 km/h 6.4 km/h 75% 0.0 mm 816 W/m2
17:17 22.2 °C 17.8 °C 1006.4 hPa NE 1.4 km/h 4.8 km/h 76% 0.0 mm 62 W/m2
17:22 21.8 °C 17.4 °C 1006.4 hPa Calm   11.3 km/h 76% 0.0 mm 77 W/m2
17:27 21.5 °C 17.5 °C 1006.4 hPa WNW 1.4 km/h 3.2 km/h 78% 0.0 mm 62 W/m2
17:33 21.3 °C 17.3 °C 1006.4 hPa WNW 1.4 km/h 4.8 km/h 78% 0.0 mm 67 W/m2
17:38 21.1 °C 17.3 °C 1006.1 hPa West 1.4 km/h 4.8 km/h 79% 0.0 mm 83 W/m2
17:54 20.1 °C 17.3 °C 1006.4 hPa West 4.7 km/h 6.4 km/h 84% 2.0 mm 109 W/m2
17:59 19.4 °C 17.2 °C 1006.4 hPa WNW 3.2 km/h 8 km/h 87% 2.3 mm 309 W/m2
18:04 19.2 °C 17.3 °C 1006.4 hPa Calm   1.6 km/h 89% 2.5 mm 171 W/m2
18:09 19.2 °C 17.5 °C 1006.4 hPa Calm   3.2 km/h 90% 2.8 mm 118 W/m2
18:26 18.3 °C 16.8 °C 1006.1 hPa Calm   3.2 km/h 91% 2.8 mm 176 W/m2
18:31 18.4 °C 16.9 °C 1006.1 hPa Calm   6.4 km/h 91% 2.8 mm 169 W/m2
18:36 18.6 °C 17.4 °C 1006.1 hPa Calm     93% 2.8 mm 109 W/m2
18:41 18.6 °C 17.4 °C 1006.1 hPa Calm   6.4 km/h 93% 2.8 mm 137 W/m2
18:46 18.7 °C 17.5 °C 1006.1 hPa SW 1.4 km/h 1.6 km/h 93% 2.8 mm 113 W/m2
18:51 18.7 °C 17.4 °C 1006.1 hPa NNE 1.4 km/h 4.8 km/h 92% 1.3 mm 118 W/m2
18:56 18.7 °C 17.4 °C 1006.1 hPa Calm   1.6 km/h 92% 0.5 mm 76 W/m2
19:01 18.7 °C 17.4 °C 1006.1 hPa Calm   4.8 km/h 92% 0.5 mm 37 W/m2
19:06 18.7 °C 17.4 °C 1006.1 hPa Calm     92% 0.0 mm 21 W/m2
19:11 18.6 °C 17.3 °C 1006.1 hPa Calm     92% 0.0 mm 18 W/m2
19:16 18.4 °C 16.9 °C 1006.4 hPa West 9.7 km/h 12.9 km/h 91% 1.8 mm 30 W/m2
19:34 18.3 °C 17.3 °C 1006.1 hPa Calm   1.6 km/h 94% 3.3 mm 195 W/m2
19:39 18.6 °C 17.6 °C 1006.4 hPa Calm     94% 3.3 mm 188 W/m2
19:44 18.7 °C 17.7 °C 1006.1 hPa Calm   1.6 km/h 94% 3.3 mm 190 W/m2
19:49 18.8 °C 17.8 °C 1006.1 hPa Calm     94% 3.3 mm 169 W/m2
19:54 18.8 °C 17.8 °C 1006.1 hPa Calm     94% 3.3 mm 148 W/m2
19:59 18.9 °C 17.7 °C 1006.1 hPa Calm     93% 3.3 mm 121 W/m2
20:16 18.6 °C 17.4 °C 1006.1 hPa Calm     93% 0.5 mm 23 W/m2
20:21 18.4 °C 17.2 °C 1006.1 hPa SW 1.6 km/h 1.6 km/h 93% 0.0 mm 21 W/m2
20:26 18.2 °C 17 °C 1006.1 hPa Calm     93% 0.0 mm 21 W/m2
20:31 18.1 °C 16.9 °C 1006.1 hPa Calm     93% 0.0 mm 16 W/m2
20:36 17.9 °C 16.8 °C 1006.1 hPa Calm     93% 0.0 mm 14 W/m2
20:41 17.8 °C 16.8 °C 1006.1 hPa Calm     94% 0.0 mm 12 W/m2
21:00 17.3 °C 16.3 °C 1006.1 hPa SE 3.2 km/h 4.8 km/h 94% 0.0 mm 5 W/m2
21:05 17.2 °C 16.2 °C 1005.8 hPa SE 3.2 km/h 3.2 km/h 94% 0.0 mm 0 W/m2
21:10 16.9 °C 15.9 °C 1006.1 hPa SW 1.4 km/h 4.8 km/h 94% 0.0 mm 0 W/m2
21:15 16.8 °C 15.8 °C 1006.1 hPa SW 3.2 km/h 3.2 km/h 94% 0.0 mm 0 W/m2
21:20 16.6 °C 15.6 °C 1006.1 hPa SW 1.4 km/h 1.6 km/h 94% 0.0 mm 0 W/m2
21:25 16.4 °C 15.4 °C 1006.1 hPa Calm   1.6 km/h 94% 0.0 mm 0 W/m2
21:30 16.3 °C 15.3 °C 1006.1 hPa Calm   1.6 km/h 94% 0.0 mm 0 W/m2
21:35 16.2 °C 15.2 °C 1006.1 hPa Calm     94% 0.0 mm 0 W/m2
21:40 16.1 °C 15.1 °C 1006.1 hPa WSW 1.4 km/h 1.6 km/h 94% 0.0 mm 0 W/m2
21:45 16 °C 15 °C 1006.1 hPa WSW 1.4 km/h 1.6 km/h 94% 0.0 mm 0 W/m2
21:50 16 °C 15 °C 1006.1 hPa WSW 1.4 km/h 3.2 km/h 94% 0.0 mm 0 W/m2
22:11 15.8 °C 15 °C 1006.4 hPa Calm     95% 0.0 mm 0 W/m2
22:16 15.8 °C 15 °C 1006.4 hPa Calm     95% 0.0 mm 0 W/m2
22:21 15.7 °C 14.9 °C 1006.4 hPa Calm     95% 0.0 mm 0 W/m2
22:26 15.7 °C 14.9 °C 1006.4 hPa Calm   1.6 km/h 95% 0.0 mm 0 W/m2
22:31 15.6 °C 14.8 °C 1006.4 hPa Calm     95% 0.0 mm 0 W/m2
22:36 15.5 °C 14.7 °C 1006.4 hPa Calm   1.6 km/h 95% 0.0 mm 0 W/m2
22:41 15.4 °C 14.6 °C 1006.4 hPa Calm     95% 0.0 mm 0 W/m2
22:46 15.3 °C 14.5 °C 1006.4 hPa Calm     95% 0.0 mm 0 W/m2
22:51 15.2 °C 14.4 °C 1006.4 hPa Calm   1.6 km/h 95% 0.0 mm 0 W/m2
22:56 15.2 °C 14.4 °C 1006.1 hPa Calm   1.6 km/h 95% 0.0 mm 0 W/m2
23:01 15.1 °C 14.3 °C 1006.1 hPa Calm     95% 0.0 mm 0 W/m2
23:06 15.1 °C 14.3 °C 1006.1 hPa Calm     95% 0.0 mm 0 W/m2
23:11 15 °C 14.2 °C 1006.1 hPa Calm   1.6 km/h 95% 0.0 mm 0 W/m2
23:16 14.9 °C 14.1 °C 1006.1 hPa Calm     95% 0.0 mm 0 W/m2
23:21 14.9 °C 14.3 °C 1006.1 hPa Calm   1.6 km/h 96% 0.0 mm 0 W/m2
23:26 14.9 °C 14.3 °C 1006.1 hPa Calm     96% 0.0 mm 0 W/m2
23:31 14.9 °C 14.3 °C 1005.8 hPa Calm     96% 0.0 mm 0 W/m2
23:36 14.9 °C 14.3 °C 1005.8 hPa Calm     96% 0.0 mm 0 W/m2
23:41 14.9 °C 14.3 °C 1005.8 hPa Calm     96% 0.0 mm 0 W/m2
23:46 14.9 °C 14.3 °C 1005.8 hPa Calm     96% 0.0 mm 0 W/m2
Juneau County Weather
Compliments of Weather Underground - 2 mb